owner,sensor,date,latitude,longitude,vertical_datum,direction_of_sea_water_velocity,sea_water_speed,upward_sea_water_velocity,qcFlag 
TABS,ioos:station:wmo:42044:1,2008-11-01T00:00:00Z,26.1914,-97.0507,2.0,20.5283455,12.03417218,-99999.0,'11111222,11111222,99999999' 
TABS,ioos:station:wmo:42044:1,2008-11-01T00:30:00Z,26.1914,-97.0507,2.0,3.180033143,9.194155752,-99999.0,'11133222,11111222,99999999' 
TABS,ioos:station:wmo:42044:1,2008-11-01T01:00:00Z,26.1914,-97.0507,2.0,28.74524026,12.22672483,-99999.0,'11111222,11111222,99999999' 
TABS,ioos:station:wmo:42044:1,2008-11-01T01:30:00Z,26.1914,-97.0507,2.0,0.487524976,8.230297686,-99999.0,'11133222,11111222,99999999' 
TABS,ioos:station:wmo:42044:1,2008-11-01T02:00:00Z,26.1914,-97.0507,2.0,27.90029009,10.36475277,-99999.0,'11111222,11111222,99999999' 
TABS,ioos:station:wmo:42044:1,2008-11-01T02:30:00Z,26.1914,-97.0507,2.0,6.588265633,7.147195254,-99999.0,'11133222,11111222,99999999' 
TABS,ioos:station:wmo:42044:1,2008-11-01T03:00:00Z,26.1914,-97.0507,2.0,336.7928771,8.551988073,-99999.0,'11133222,11111222,99999999' 
TABS,ioos:station:wmo:42044:1,2008-11-01T03:30:00Z,26.1914,-97.0507,2.0,352.980038,9.491153776,-99999.0,'11133222,11111222,99999999' 
TABS,ioos:station:wmo:42044:1,2008-11-01T04:00:00Z,26.1914,-97.0507,2.0,357.5526816,10.06918567,-99999.0,'11111222,11111222,99999999' 
TABS,ioos:station:wmo:42044:1,2008-11-01T04:30:00Z,26.1914,-97.0507,2.0,338.8170915,11.0142317,-99999.0,'11111222,11111222,99999999' 
TABS,ioos:station:wmo:42044:1,2008-11-01T05:00:00Z,26.1914,-97.0507,2.0,329.1029175,10.36023648,-99999.0,'11111222,11111222,99999999' 
TABS,ioos:station:wmo:42044:1,2008-11-01T05:30:00Z,26.1914,-97.0507,2.0,335.8602273,13.10615123,-99999.0,'11111222,11111222,99999999' 
TABS,ioos:station:wmo:42044:1,2008-11-01T06:00:00Z,26.1914,-97.0507,2.0,340.539859,9.365004004,-99999.0,'11133222,11111222,99999999' 
TABS,ioos:station:wmo:42044:1,2008-11-01T06:30:00Z,26.1914,-97.0507,2.0,327.7290188,11.64950214,-99999.0,'11111222,11111222,99999999' 
TABS,ioos:station:wmo:42044:1,2008-11-01T07:00:00Z,26.1914,-97.0507,2.0,328.4707305,10.59398414,-99999.0,'11111222,11111222,99999999' 
TABS,ioos:station:wmo:42044:1,2008-11-01T07:30:00Z,26.1914,-97.0507,2.0,326.6179152,12.39495462,-99999.0,'11111222,11111222,99999999' 
TABS,ioos:station:wmo:42044:1,2008-11-01T08:00:00Z,26.1914,-97.0507,2.0,329.2887062,15.58594238,-99999.0,'11111222,11111222,99999999' 
TABS,ioos:station:wmo:42044:1,2008-11-01T08:30:00Z,26.1914,-97.0507,2.0,332.7876119,12.66142567,-99999.0,'11111222,11111222,99999999' 
TABS,ioos:station:wmo:42044:1,2008-11-01T09:00:00Z,26.1914,-97.0507,2.0,319.1365293,12.54847401,-99999.0,'11111222,11111222,99999999' 
TABS,ioos:station:wmo:42044:1,2008-11-01T09:30:00Z,26.1914,-97.0507,2.0,321.3669693,16.89800284,-99999.0,'11111222,11111222,99999999' 
TABS,ioos:station:wmo:42044:1,2008-11-01T10:00:00Z,26.1914,-97.0507,2.0,338.5928237,15.12338586,-99999.0,'11111222,11111222,99999999' 
TABS,ioos:station:wmo:42044:1,2008-11-01T10:30:00Z,26.1914,-97.0507,2.0,322.8452624,13.26216423,-99999.0,'11111222,11111222,99999999' 
TABS,ioos:station:wmo:42044:1,2008-11-01T11:00:00Z,26.1914,-97.0507,2.0,317.6605275,16.91100529,-99999.0,'11111222,11111222,99999999' 
TABS,ioos:station:wmo:42044:1,2008-11-01T11:30:00Z,26.1914,-97.0507,2.0,334.2683757,15.68543911,-99999.0,'11111222,11111222,99999999' 
TABS,ioos:station:wmo:42044:1,2008-11-01T12:00:00Z,26.1914,-97.0507,2.0,349.7848963,14.8859699,-99999.0,'11111222,11111222,99999999' 
TABS,ioos:station:wmo:42044:1,2008-11-01T12:30:00Z,26.1914,-97.0507,2.0,335.9989856,14.9966663,-99999.0,'11111222,11111222,99999999' 
TABS,ioos:station:wmo:42044:1,2008-11-01T13:00:00Z,26.1914,-97.0507,2.0,339.5022972,16.16339073,-99999.0,'11111222,11111222,99999999' 
TABS,ioos:station:wmo:42044:1,2008-11-01T13:30:00Z,26.1914,-97.0507,2.0,350.5566059,15.1148437,-99999.0,'11111222,11111222,99999999' 
TABS,ioos:station:wmo:42044:1,2008-11-01T14:00:00Z,26.1914,-97.0507,2.0,353.8145232,18.83968683,-99999.0,'11111222,11111222,99999999' 
TABS,ioos:station:wmo:42044:1,2008-11-01T14:30:00Z,26.1914,-97.0507,2.0,3.322842497,15.35581323,-99999.0,'11111222,11111222,99999999' 
TABS,ioos:station:wmo:42044:1,2008-11-01T15:00:00Z,26.1914,-97.0507,2.0,3.061408787,17.41484998,-99999.0,'11111222,11111222,99999999' 
TABS,ioos:station:wmo:42044:1,2008-11-01T15:30:00Z,26.1914,-97.0507,2.0,0.9340752,14.11187443,-99999.0,'11111222,11111222,99999999' 
TABS,ioos:station:wmo:42044:1,2008-11-01T16:00:00Z,26.1914,-97.0507,2.0,6.479213524,15.95188077,-99999.0,'11111222,11111222,99999999' 
TABS,ioos:station:wmo:42044:1,2008-11-01T16:30:00Z,26.1914,-97.0507,2.0,3.841732595,13.88118871,-99999.0,'11111222,11111222,99999999' 
TABS,ioos:station:wmo:42044:1,2008-11-01T17:00:00Z,26.1914,-97.0507,2.0,7.781483301,14.40261782,-99999.0,'11111222,11111222,99999999' 
TABS,ioos:station:wmo:42044:1,2008-11-01T17:30:00Z,26.1914,-97.0507,2.0,5.289439698,12.58358057,-99999.0,'11111222,11111222,99999999' 
TABS,ioos:station:wmo:42044:1,2008-11-01T18:00:00Z,26.1914,-97.0507,2.0,18.05790084,12.96878175,-99999.0,'11111222,11111222,99999999' 
TABS,ioos:station:wmo:42044:1,2008-11-01T18:30:00Z,26.1914,-97.0507,2.0,22.27312742,13.0863937,-99999.0,'11111222,11111222,99999999' 
TABS,ioos:station:wmo:42044:1,2008-11-01T19:00:00Z,26.1914,-97.0507,2.0,29.99433537,13.68240111,-99999.0,'11111222,11111222,99999999' 
TABS,ioos:station:wmo:42044:1,2008-11-01T19:30:00Z,26.1914,-97.0507,2.0,20.75325842,11.57075624,-99999.0,'11111222,11111222,99999999' 
TABS,ioos:station:wmo:42044:1,2008-11-01T20:00:00Z,26.1914,-97.0507,2.0,17.53794226,14.13711427,-99999.0,'11111222,11111222,99999999' 
TABS,ioos:station:wmo:42044:1,2008-11-01T20:30:00Z,26.1914,-97.0507,2.0,10.47682555,9.844109914,-99999.0,'11133222,11111222,99999999' 
TABS,ioos:station:wmo:42044:1,2008-11-01T21:00:00Z,26.1914,-97.0507,2.0,13.94449601,10.58184294,-99999.0,'11111222,11111222,99999999' 
TABS,ioos:station:wmo:42044:1,2008-11-01T21:30:00Z,26.1914,-97.0507,2.0,33.72521029,9.077670406,-99999.0,'11133222,11111222,99999999' 
TABS,ioos:station:wmo:42044:1,2008-11-01T22:00:00Z,26.1914,-97.0507,2.0,29.47603053,6.869119303,-99999.0,'11133222,11111222,99999999' 
TABS,ioos:station:wmo:42044:1,2008-11-01T22:30:00Z,26.1914,-97.0507,2.0,21.16394017,6.841439907,-99999.0,'11133222,11111222,99999999' 
TABS,ioos:station:wmo:42044:1,2008-11-01T23:00:00Z,26.1914,-97.0507,2.0,47.03434128,10.35857133,-99999.0,'11111222,11111222,99999999' 
TABS,ioos:station:wmo:42044:1,2008-11-01T23:30:00Z,26.1914,-97.0507,2.0,18.15630745,5.198846026,-99999.0,'11133222,11111222,99999999' 
TABS,ioos:station:wmo:42044:1,2008-11-02T00:00:00Z,26.1914,-97.0507,2.0,33.73499641,3.547308839,-99999.0,'11133222,11111222,99999999' 
TABS,ioos:station:wmo:42044:1,2008-11-02T00:30:00Z,26.1914,-97.0507,2.0,1.204847901,4.280946157,-99999.0,'11133222,11111222,99999999' 
TABS,ioos:station:wmo:42044:1,2008-11-02T01:00:00Z,26.1914,-97.0507,2.0,358.1929378,8.244100921,-99999.0,'11133222,11111222,99999999' 
TABS,ioos:station:wmo:42044:1,2008-11-02T01:30:00Z,26.1914,-97.0507,2.0,356.5254244,5.279706431,-99999.0,'11133222,11111222,99999999' 
TABS,ioos:station:wmo:42044:1,2008-11-02T02:00:00Z,26.1914,-97.0507,2.0,317.4660689,2.958445538,-99999.0,'11133222,11111222,99999999' 
TABS,ioos:station:wmo:42044:1,2008-11-02T02:30:00Z,26.1914,-97.0507,2.0,288.5447389,4.967947262,-99999.0,'11133222,11111222,99999999' 
TABS,ioos:station:wmo:42044:1,2008-11-02T03:00:00Z,26.1914,-97.0507,2.0,302.3745083,3.623147803,-99999.0,'11133222,11111222,99999999' 
TABS,ioos:station:wmo:42044:1,2008-11-02T03:30:00Z,26.1914,-97.0507,2.0,314.2987714,6.930165943,-99999.0,'11133222,11111222,99999999' 
TABS,ioos:station:wmo:42044:1,2008-11-02T04:00:00Z,26.1914,-97.0507,2.0,301.957117,9.994723608,-99999.0,'11133222,11111222,99999999' 
TABS,ioos:station:wmo:42044:1,2008-11-02T04:30:00Z,26.1914,-97.0507,2.0,297.745245,11.728427,-99999.0,'11111222,11111222,99999999' 
TABS,ioos:station:wmo:42044:1,2008-11-02T05:00:00Z,26.1914,-97.0507,2.0,291.4436342,12.77423188,-99999.0,'11111222,11111222,99999999' 
TABS,ioos:station:wmo:42044:1,2008-11-02T05:30:00Z,26.1914,-97.0507,2.0,288.0302382,14.31282642,-99999.0,'11111222,11111222,99999999' 
TABS,ioos:station:wmo:42044:1,2008-11-02T06:00:00Z,26.1914,-97.0507,2.0,297.8479341,15.58482595,-99999.0,'11111222,11111222,99999999' 
TABS,ioos:station:wmo:42044:1,2008-11-02T06:30:00Z,26.1914,-97.0507,2.0,307.2363108,15.96432585,-99999.0,'11111222,11111222,99999999' 
TABS,ioos:station:wmo:42044:1,2008-11-02T07:00:00Z,26.1914,-97.0507,2.0,307.518427,15.91101819,-99999.0,'11111222,11111222,99999999' 
TABS,ioos:station:wmo:42044:1,2008-11-02T07:30:00Z,26.1914,-97.0507,2.0,311.135187,16.88876846,-99999.0,'11111222,11111222,99999999' 
TABS,ioos:station:wmo:42044:1,2008-11-02T08:00:00Z,26.1914,-97.0507,2.0,312.2648029,16.74215339,-99999.0,'11111222,11111222,99999999' 
TABS,ioos:station:wmo:42044:1,2008-11-02T08:30:00Z,26.1914,-97.0507,2.0,323.427265,18.91425388,-99999.0,'11111222,11111222,99999999' 
TABS,ioos:station:wmo:42044:1,2008-11-02T09:00:00Z,26.1914,-97.0507,2.0,324.0161839,18.50021081,-99999.0,'11111222,11111222,99999999' 
TABS,ioos:station:wmo:42044:1,2008-11-02T09:30:00Z,26.1914,-97.0507,2.0,317.5054027,20.38415561,-99999.0,'11111222,11111222,99999999' 
TABS,ioos:station:wmo:42044:1,2008-11-02T10:00:00Z,26.1914,-97.0507,2.0,319.4307903,21.51082751,-99999.0,'11111222,11111222,99999999' 
TABS,ioos:station:wmo:42044:1,2008-11-02T10:30:00Z,26.1914,-97.0507,2.0,315.7463604,21.17964353,-99999.0,'11111222,11111222,99999999' 
TABS,ioos:station:wmo:42044:1,2008-11-02T11:00:00Z,26.1914,-97.0507,2.0,319.0669605,22.83339878,-99999.0,'11111222,11111222,99999999' 
TABS,ioos:station:wmo:42044:1,2008-11-02T11:30:00Z,26.1914,-97.0507,2.0,322.0765357,19.57331091,-99999.0,'11111222,11111222,99999999' 
TABS,ioos:station:wmo:42044:1,2008-11-02T12:00:00Z,26.1914,-97.0507,2.0,315.5362504,15.87524173,-99999.0,'11111222,11111222,99999999' 
TABS,ioos:station:wmo:42044:1,2008-11-02T12:30:00Z,26.1914,-97.0507,2.0,326.2436075,21.46968561,-99999.0,'11111222,11111222,99999999' 
TABS,ioos:station:wmo:42044:1,2008-11-02T13:00:00Z,26.1914,-97.0507,2.0,334.807667,21.47241253,-99999.0,'11111222,11111222,99999999' 
TABS,ioos:station:wmo:42044:1,2008-11-02T13:30:00Z,26.1914,-97.0507,2.0,334.275684,18.29300413,-99999.0,'11111222,11111222,99999999' 
TABS,ioos:station:wmo:42044:1,2008-11-02T14:00:00Z,26.1914,-97.0507,2.0,337.5149615,18.66928226,-99999.0,'11111222,11111222,99999999' 
TABS,ioos:station:wmo:42044:1,2008-11-02T14:30:00Z,26.1914,-97.0507,2.0,343.0296865,21.03601673,-99999.0,'11111222,11111222,99999999' 
TABS,ioos:station:wmo:42044:1,2008-11-02T15:00:00Z,26.1914,-97.0507,2.0,345.2150379,21.70879315,-99999.0,'11111222,11111222,99999999' 
TABS,ioos:station:wmo:42044:1,2008-11-02T15:30:00Z,26.1914,-97.0507,2.0,344.1174418,21.37606372,-99999.0,'11111222,11111222,99999999' 
TABS,ioos:station:wmo:42044:1,2008-11-02T16:00:00Z,26.1914,-97.0507,2.0,345.3089769,19.51811722,-99999.0,'11111222,11111222,99999999' 
TABS,ioos:station:wmo:42044:1,2008-11-02T16:30:00Z,26.1914,-97.0507,2.0,341.8301518,20.52340128,-99999.0,'11111222,11111222,99999999' 
TABS,ioos:station:wmo:42044:1,2008-11-02T17:00:00Z,26.1914,-97.0507,2.0,341.1211614,18.35757337,-99999.0,'11111222,11111222,99999999' 
TABS,ioos:station:wmo:42044:1,2008-11-02T17:30:00Z,26.1914,-97.0507,2.0,358.1882447,18.65933011,-99999.0,'11111222,11111222,99999999' 
TABS,ioos:station:wmo:42044:1,2008-11-02T18:00:00Z,26.1914,-97.0507,2.0,350.6538821,17.05642987,-99999.0,'11111222,11111222,99999999' 
TABS,ioos:station:wmo:42044:1,2008-11-02T18:30:00Z,26.1914,-97.0507,2.0,346.4152129,14.47497496,-99999.0,'11111222,11111222,99999999' 
TABS,ioos:station:wmo:42044:1,2008-11-02T19:00:00Z,26.1914,-97.0507,2.0,353.7767107,17.89546591,-99999.0,'11111222,11111222,99999999' 
TABS,ioos:station:wmo:42044:1,2008-11-02T19:30:00Z,26.1914,-97.0507,2.0,338.4525954,14.67564649,-99999.0,'11111222,11111222,99999999' 
TABS,ioos:station:wmo:42044:1,2008-11-02T20:00:00Z,26.1914,-97.0507,2.0,344.9370877,15.96868498,-99999.0,'11111222,11111222,99999999' 
TABS,ioos:station:wmo:42044:1,2008-11-02T20:30:00Z,26.1914,-97.0507,2.0,338.8521023,17.10179523,-99999.0,'11111222,11111222,99999999' 
TABS,ioos:station:wmo:42044:1,2008-11-02T21:00:00Z,26.1914,-97.0507,2.0,332.3438571,16.2010154,-99999.0,'11111222,11111222,99999999' 
TABS,ioos:station:wmo:42044:1,2008-11-02T21:30:00Z,26.1914,-97.0507,2.0,328.0516155,16.06321574,-99999.0,'11111222,11111222,99999999' 
TABS,ioos:station:wmo:42044:1,2008-11-02T22:00:00Z,26.1914,-97.0507,2.0,330.954362,19.21689101,-99999.0,'11111222,11111222,99999999' 
TABS,ioos:station:wmo:42044:1,2008-11-02T22:30:00Z,26.1914,-97.0507,2.0,318.8366942,16.90945889,-99999.0,'11111222,11111222,99999999' 
TABS,ioos:station:wmo:42044:1,2008-11-02T23:00:00Z,26.1914,-97.0507,2.0,324.3238857,14.88322882,-99999.0,'11111222,11111222,99999999' 
TABS,ioos:station:wmo:42044:1,2008-11-02T23:30:00Z,26.1914,-97.0507,2.0,316.6849961,14.43121616,-99999.0,'11111222,11111222,99999999' 
TABS,ioos:station:wmo:42044:1,2008-11-03T00:00:00Z,26.1914,-97.0507,2.0,306.3238705,12.37456262,-99999.0,'11111222,11111222,99999999' 
TABS,ioos:station:wmo:42044:1,2008-11-03T00:30:00Z,26.1914,-97.0507,2.0,311.8595832,12.64792473,-99999.0,'11111222,11111222,99999999' 
TABS,ioos:station:wmo:42044:1,2008-11-03T01:00:00Z,26.1914,-97.0507,2.0,322.0758982,14.23641106,-99999.0,'11111222,11111222,99999999' 
TABS,ioos:station:wmo:42044:1,2008-11-03T01:30:00Z,26.1914,-97.0507,2.0,320.5893326,12.2700652,-99999.0,'11111222,11111222,99999999' 
TABS,ioos:station:wmo:42044:1,2008-11-03T02:00:00Z,26.1914,-97.0507,2.0,308.0362082,14.05491017,-99999.0,'11111222,11111222,99999999' 
TABS,ioos:station:wmo:42044:1,2008-11-03T02:30:00Z,26.1914,-97.0507,2.0,318.433938,14.1675686,-99999.0,'11111222,11111222,99999999' 
TABS,ioos:station:wmo:42044:1,2008-11-03T03:00:00Z,26.1914,-97.0507,2.0,311.219756,14.47769664,-99999.0,'11111222,11111222,99999999' 
TABS,ioos:station:wmo:42044:1,2008-11-03T03:30:00Z,26.1914,-97.0507,2.0,322.535913,15.42083007,-99999.0,'11111222,11111222,99999999' 
TABS,ioos:station:wmo:42044:1,2008-11-03T04:00:00Z,26.1914,-97.0507,2.0,315.3347223,14.53836304,-99999.0,'11111222,11111222,99999999' 
TABS,ioos:station:wmo:42044:1,2008-11-03T04:30:00Z,26.1914,-97.0507,2.0,304.3124878,17.88181478,-99999.0,'11111222,11111222,99999999' 
TABS,ioos:station:wmo:42044:1,2008-11-03T05:00:00Z,26.1914,-97.0507,2.0,316.3550278,16.74897012,-99999.0,'11111222,11111222,99999999' 
TABS,ioos:station:wmo:42044:1,2008-11-03T05:30:00Z,26.1914,-97.0507,2.0,304.0060392,19.13190006,-99999.0,'11111222,11111222,99999999' 
TABS,ioos:station:wmo:42044:1,2008-11-03T06:00:00Z,26.1914,-97.0507,2.0,308.3776646,20.90723559,-99999.0,'11111222,11111222,99999999' 
TABS,ioos:station:wmo:42044:1,2008-11-03T06:30:00Z,26.1914,-97.0507,2.0,307.7595775,19.97240596,-99999.0,'11111222,11111222,99999999' 
TABS,ioos:station:wmo:42044:1,2008-11-03T07:00:00Z,26.1914,-97.0507,2.0,306.0995605,20.51985624,-99999.0,'11111222,11111222,99999999' 
TABS,ioos:station:wmo:42044:1,2008-11-03T07:30:00Z,26.1914,-97.0507,2.0,309.428622,20.02796295,-99999.0,'11111222,11111222,99999999' 
TABS,ioos:station:wmo:42044:1,2008-11-03T08:00:00Z,26.1914,-97.0507,2.0,302.6174857,18.36657018,-99999.0,'11111222,11111222,99999999' 
TABS,ioos:station:wmo:42044:1,2008-11-03T08:30:00Z,26.1914,-97.0507,2.0,294.3431119,22.4893975,-99999.0,'11111222,11111222,99999999' 
TABS,ioos:station:wmo:42044:1,2008-11-03T09:00:00Z,26.1914,-97.0507,2.0,297.6902307,19.81985368,-99999.0,'11111222,11111222,99999999' 
TABS,ioos:station:wmo:42044:1,2008-11-03T09:30:00Z,26.1914,-97.0507,2.0,304.9430303,20.93384102,-99999.0,'11111222,11111222,99999999' 
TABS,ioos:station:wmo:42044:1,2008-11-03T10:00:00Z,26.1914,-97.0507,2.0,303.1914037,19.10737292,-99999.0,'11111222,11111222,99999999' 
TABS,ioos:station:wmo:42044:1,2008-11-03T10:30:00Z,26.1914,-97.0507,2.0,301.2671328,17.18611358,-99999.0,'11111222,11111222,99999999' 
TABS,ioos:station:wmo:42044:1,2008-11-03T11:00:00Z,26.1914,-97.0507,2.0,305.5417277,17.94282308,-99999.0,'11111222,11111222,99999999' 
TABS,ioos:station:wmo:42044:1,2008-11-03T11:30:00Z,26.1914,-97.0507,2.0,300.1915987,24.04114182,-99999.0,'11111222,11111222,99999999' 
TABS,ioos:station:wmo:42044:1,2008-11-03T12:00:00Z,26.1914,-97.0507,2.0,289.0350498,22.6589607,-99999.0,'11111222,11111222,99999999' 
TABS,ioos:station:wmo:42044:1,2008-11-03T12:30:00Z,26.1914,-97.0507,2.0,285.5974036,24.39843438,-99999.0,'11111222,11111222,99999999' 
TABS,ioos:station:wmo:42044:1,2008-11-03T13:00:00Z,26.1914,-97.0507,2.0,280.5049117,27.20595707,-99999.0,'11111222,11111222,99999999' 
TABS,ioos:station:wmo:42044:1,2008-11-03T13:30:00Z,26.1914,-97.0507,2.0,272.1657177,23.02644132,-99999.0,'11111222,11111222,99999999' 
TABS,ioos:station:wmo:42044:1,2008-11-03T14:00:00Z,26.1914,-97.0507,2.0,274.2613455,23.28435741,-99999.0,'11111222,11111222,99999999' 
TABS,ioos:station:wmo:42044:1,2008-11-03T14:30:00Z,26.1914,-97.0507,2.0,290.8730389,25.20402547,-99999.0,'11111222,11111222,99999999' 
TABS,ioos:station:wmo:42044:1,2008-11-03T15:00:00Z,26.1914,-97.0507,2.0,286.1488747,24.4132464,-99999.0,'11111222,11111222,99999999' 
TABS,ioos:station:wmo:42044:1,2008-11-03T15:30:00Z,26.1914,-97.0507,2.0,276.8374148,23.68845288,-99999.0,'11111222,11111222,99999999' 
TABS,ioos:station:wmo:42044:1,2008-11-03T16:00:00Z,26.1914,-97.0507,2.0,278.5112006,25.54126074,-99999.0,'11111222,11111222,99999999' 
TABS,ioos:station:wmo:42044:1,2008-11-03T16:30:00Z,26.1914,-97.0507,2.0,283.8895657,20.7877969,-99999.0,'11111222,11111222,99999999' 
TABS,ioos:station:wmo:42044:1,2008-11-03T17:00:00Z,26.1914,-97.0507,2.0,292.0338383,22.92427752,-99999.0,'11111222,11111222,99999999' 
TABS,ioos:station:wmo:42044:1,2008-11-03T17:30:00Z,26.1914,-97.0507,2.0,290.6668833,24.28257194,-99999.0,'11111222,11111222,99999999' 
TABS,ioos:station:wmo:42044:1,2008-11-03T18:00:00Z,26.1914,-97.0507,2.0,282.9881864,25.18426493,-99999.0,'11111222,11111222,99999999' 
TABS,ioos:station:wmo:42044:1,2008-11-03T18:30:00Z,26.1914,-97.0507,2.0,283.2380315,22.79571232,-99999.0,'11111222,11111222,99999999' 
TABS,ioos:station:wmo:42044:1,2008-11-03T19:00:00Z,26.1914,-97.0507,2.0,287.1774825,24.92159104,-99999.0,'11111222,11111222,99999999' 
TABS,ioos:station:wmo:42044:1,2008-11-03T19:30:00Z,26.1914,-97.0507,2.0,286.6684561,21.12773533,-99999.0,'11111222,11111222,99999999' 
TABS,ioos:station:wmo:42044:1,2008-11-03T20:00:00Z,26.1914,-97.0507,2.0,295.1367924,20.26954859,-99999.0,'11111222,11111222,99999999' 
TABS,ioos:station:wmo:42044:1,2008-11-03T20:30:00Z,26.1914,-97.0507,2.0,290.4355257,27.18052612,-99999.0,'11111222,11111222,99999999' 
TABS,ioos:station:wmo:42044:1,2008-11-03T21:00:00Z,26.1914,-97.0507,2.0,293.0957046,31.33107882,-99999.0,'11111222,11111222,99999999' 
TABS,ioos:station:wmo:42044:1,2008-11-03T21:30:00Z,26.1914,-97.0507,2.0,303.7784919,41.49439721,-99999.0,'11111222,11111222,99999999' 
TABS,ioos:station:wmo:42044:1,2008-11-03T22:00:00Z,26.1914,-97.0507,2.0,299.6883477,39.97765501,-99999.0,'11111222,11111222,99999999' 
TABS,ioos:station:wmo:42044:1,2008-11-03T22:30:00Z,26.1914,-97.0507,2.0,298.6169142,29.98252825,-99999.0,'11111222,11111222,99999999' 
TABS,ioos:station:wmo:42044:1,2008-11-03T23:00:00Z,26.1914,-97.0507,2.0,305.2655557,36.42428448,-99999.0,'11111222,11111222,99999999' 
TABS,ioos:station:wmo:42044:1,2008-11-03T23:30:00Z,26.1914,-97.0507,2.0,303.5927705,34.17790222,-99999.0,'11111222,11111222,99999999' 
TABS,ioos:station:wmo:42044:1,2008-11-04T00:00:00Z,26.1914,-97.0507,2.0,293.9580032,23.98653789,-99999.0,'11111222,11111222,99999999' 
TABS,ioos:station:wmo:42044:1,2008-11-04T00:30:00Z,26.1914,-97.0507,2.0,312.3757737,35.97997916,-99999.0,'11111222,11111222,99999999' 
TABS,ioos:station:wmo:42044:1,2008-11-04T01:00:00Z,26.1914,-97.0507,2.0,305.4359928,30.68361289,-99999.0,'11111222,11111222,99999999' 
TABS,ioos:station:wmo:42044:1,2008-11-04T01:30:00Z,26.1914,-97.0507,2.0,306.2437139,29.44776053,-99999.0,'11111222,11111222,99999999' 
TABS,ioos:station:wmo:42044:1,2008-11-04T02:00:00Z,26.1914,-97.0507,2.0,308.2215351,29.17411353,-99999.0,'11111222,11111222,99999999' 
TABS,ioos:station:wmo:42044:1,2008-11-04T02:30:00Z,26.1914,-97.0507,2.0,304.0369517,26.13795134,-99999.0,'11111222,11111222,99999999' 
TABS,ioos:station:wmo:42044:1,2008-11-04T03:00:00Z,26.1914,-97.0507,2.0,319.9124493,26.50779697,-99999.0,'11111222,11111222,99999999' 
TABS,ioos:station:wmo:42044:1,2008-11-04T03:30:00Z,26.1914,-97.0507,2.0,326.8742799,28.45472544,-99999.0,'11111222,11111222,99999999' 
TABS,ioos:station:wmo:42044:1,2008-11-04T04:00:00Z,26.1914,-97.0507,2.0,334.2963216,31.84073178,-99999.0,'11111222,11111222,99999999' 
TABS,ioos:station:wmo:42044:1,2008-11-04T04:30:00Z,26.1914,-97.0507,2.0,342.3485264,30.99954193,-99999.0,'11111222,11111222,99999999' 
TABS,ioos:station:wmo:42044:1,2008-11-04T05:00:00Z,26.1914,-97.0507,2.0,345.5717071,34.71493771,-99999.0,'11111222,11111222,99999999' 
TABS,ioos:station:wmo:42044:1,2008-11-04T05:30:00Z,26.1914,-97.0507,2.0,353.4766529,34.50340273,-99999.0,'11111222,11111222,99999999' 
TABS,ioos:station:wmo:42044:1,2008-11-04T06:00:00Z,26.1914,-97.0507,2.0,355.3090415,35.45878735,-99999.0,'11111222,11111222,99999999' 
TABS,ioos:station:wmo:42044:1,2008-11-04T06:30:00Z,26.1914,-97.0507,2.0,0.407248549,35.19088803,-99999.0,'11111222,11111222,99999999' 
TABS,ioos:station:wmo:42044:1,2008-11-04T07:00:00Z,26.1914,-97.0507,2.0,4.937532113,33.69502782,-99999.0,'11111222,11111222,99999999' 
TABS,ioos:station:wmo:42044:1,2008-11-04T07:30:00Z,26.1914,-97.0507,2.0,9.150075473,30.75128778,-99999.0,'11111222,11111222,99999999' 
TABS,ioos:station:wmo:42044:1,2008-11-04T08:00:00Z,26.1914,-97.0507,2.0,14.0364211,30.59344374,-99999.0,'11111222,11111222,99999999' 
TABS,ioos:station:wmo:42044:1,2008-11-04T08:30:00Z,26.1914,-97.0507,2.0,13.85306851,31.07382339,-99999.0,'11111222,11111222,99999999' 
TABS,ioos:station:wmo:42044:1,2008-11-04T09:00:00Z,26.1914,-97.0507,2.0,16.17251197,30.51763588,-99999.0,'11111222,11111222,99999999' 
TABS,ioos:station:wmo:42044:1,2008-11-04T09:30:00Z,26.1914,-97.0507,2.0,12.11522568,29.58900133,-99999.0,'11111222,11111222,99999999' 
TABS,ioos:station:wmo:42044:1,2008-11-04T10:00:00Z,26.1914,-97.0507,2.0,9.523226496,32.57896561,-99999.0,'11111222,11111222,99999999' 
TABS,ioos:station:wmo:42044:1,2008-11-04T10:30:00Z,26.1914,-97.0507,2.0,13.42955685,30.22648508,-99999.0,'11111222,11111222,99999999' 
TABS,ioos:station:wmo:42044:1,2008-11-04T11:00:00Z,26.1914,-97.0507,2.0,19.60425277,32.54661273,-99999.0,'11111222,11111222,99999999' 
TABS,ioos:station:wmo:42044:1,2008-11-04T11:30:00Z,26.1914,-97.0507,2.0,21.49993921,29.27713271,-99999.0,'11111222,11111222,99999999' 
TABS,ioos:station:wmo:42044:1,2008-11-04T12:00:00Z,26.1914,-97.0507,2.0,31.65284627,23.24831392,-99999.0,'11111222,11111222,99999999' 
TABS,ioos:station:wmo:42044:1,2008-11-04T12:30:00Z,26.1914,-97.0507,2.0,36.04701779,17.26578119,-99999.0,'11111222,11111222,99999999' 
TABS,ioos:station:wmo:42044:1,2008-11-04T13:00:00Z,26.1914,-97.0507,2.0,30.85411259,27.74680702,-99999.0,'11111222,11111222,99999999' 
TABS,ioos:station:wmo:42044:1,2008-11-04T13:30:00Z,26.1914,-97.0507,2.0,34.02805345,24.92866021,-99999.0,'11111222,11111222,99999999' 
TABS,ioos:station:wmo:42044:1,2008-11-04T14:00:00Z,26.1914,-97.0507,2.0,29.43047776,26.6604276,-99999.0,'11111222,11111222,99999999' 
TABS,ioos:station:wmo:42044:1,2008-11-04T14:30:00Z,26.1914,-97.0507,2.0,25.29380642,24.38808931,-99999.0,'11111222,11111222,99999999' 
TABS,ioos:station:wmo:42044:1,2008-11-04T15:00:00Z,26.1914,-97.0507,2.0,23.57714836,25.0511876,-99999.0,'11111222,11111222,99999999' 
TABS,ioos:station:wmo:42044:1,2008-11-04T15:30:00Z,26.1914,-97.0507,2.0,19.4486655,22.52526581,-99999.0,'11111222,11111222,99999999' 
TABS,ioos:station:wmo:42044:1,2008-11-04T16:00:00Z,26.1914,-97.0507,2.0,13.79751196,22.68455422,-99999.0,'11111222,11111222,99999999' 